{"data":{"norad_id":61755,"epoch":"2026-05-25T03:07:13.827360Z","epoch_age_seconds":57029,"freshness":"FRESH","line1":"1 61755U 24199W   26145.13002115  .00072068  00000+0  73112-3 0  9999","line2":"2 61755  97.2946  23.5650 0003707  29.9981 330.1491 15.64993925134180","mean_motion":15.64993925,"eccentricity":0.0003707,"inclination_deg":97.2946,"raan_deg":23.565,"arg_perigee_deg":29.9981,"mean_anomaly_deg":330.1491,"bstar":0.00073112,"rev_number":13418,"period_min":92.01313672831,"perigee_km":370.7534896286,"apogee_km":375.75897257013,"semimajor_km":6751.3932310994,"source":"CELESTRAK","updated_at":"2026-05-25T13:38:02.554630Z"}}